FW5431 Weather Reports


Display with metric or nautical units.
time (UTC)temp
F
wind
direction
speed
MPH
gust
MPH
rain 1hr
in
rain 24hr
in
rain mn
in
humidity
%
barometer
mb
20260509083058 58 4 1.0 3.0 0.00 0.31 0.09 92 1011.4
20260509081557 58 73 1.0 4.0 0.00 0.31 0.09 92 1011.5
20260509080059 58 82 2.0 3.0 0.00 0.31 0.09 91 1011.3
20260509074604 58 8 0.0 4.0 0.00 0.31 0.09 91 1011.1
20260509073057 58 127 1.0 5.0 0.00 0.31 0.09 91 1011.1
20260509071609 58 114 0.0 0.0 0.00 0.31 0.09 91 1011.5
20260509070106 58 115 0.0 3.0 0.00 0.31 0.09 91 1011.2
20260509064559 58 138 0.0 0.0 0.00 0.31 0.09 91 1011.1
20260509063058 58 139 0.0 3.0 0.00 0.31 0.09 91 1011.0
20260509061614 58 136 2.0 4.0 0.00 0.31 0.09 91 1011.1
20260509060101 58 114 1.0 4.0 0.00 0.31 0.09 91 1011.3
20260509054615 58 102 0.0 0.0 0.00 0.31 0.09 91 1011.2
20260509053144 58 115 0.0 3.0 0.00 0.31 0.09 91 1011.2
20260509051557 58 113 2.0 4.0 0.01 0.31 0.09 91 1011.3
20260509050100 58 51 0.0 4.0 0.01 0.31 0.09 91 1011.2
20260509044557 58 60 3.0 7.0 0.01 0.31 0.09 91 1011.2
20260509043059 59 42 3.0 8.0 0.01 0.31 0.09 91 1011.2
20260509041559 59 96 3.0 6.0 0.03 0.30 0.08 92 1010.7
20260509040113 60 84 3.0 5.0 0.08 0.30 0.08 92 1011.2
20260509040001 60 89 2.0 4.0 0.08 0.30 0.08 92 1011.2
20260509034629 60 22 1.0 4.0 0.11 0.30 0.08 92 1011.0
20260509033058 60 276 0.0 4.0 0.15 0.30 0.08 92 1011.1
20260509031558 61 122 0.0 5.0 0.13 0.26 0.04 92 1011.0
20260509030110 61 258 0.0 0.0 0.12 0.22 0.00 91 1011.4
20260509030011 61 258 0.0 0.0 0.12 0.22 0.00 91 1011.4
20260509024558 62 259 0.0 0.0 0.15 0.19 0.19 91 1010.8
20260509023058 62 156 0.0 6.0 0.11 0.15 0.15 90 1010.3
20260509021601 63 212 2.0 4.0 0.09 0.13 0.13 89 1010.7
20260509020058 64 207 2.0 5.0 0.06 0.10 0.10 89 1010.6
20260509020001 64 240 2.0 5.0 0.05 0.09 0.09 89 1010.6
20260509014608 65 259 3.0 7.0 0.01 0.04 0.04 87 1010.2
20260509013114 65 242 2.0 7.0 0.01 0.04 0.04 88 1009.9
20260509011606 66 235 4.0 10.0 0.01 0.04 0.04 89 1009.5
20260509010058 67 203 4.0 13.0 0.01 0.04 0.04 91 1009.2
20260509010004 67 290 2.0 8.0 0.01 0.04 0.04 91 1009.2
20260509004606 67 243 2.0 5.0 0.00 0.03 0.03 94 1008.9
20260509003133 67 246 0.0 2.0 0.00 0.03 0.03 94 1008.8
20260509001606 67 245 1.0 3.0 0.00 0.03 0.03 94 1008.5
20260509000112 67 244 0.0 2.0 0.00 0.03 0.03 94 1007.9
20260509000001 67 244 0.0 2.0 0.00 0.03 0.03 94 1007.9
20260508234558 67 244 1.0 4.0 0.00 0.03 0.03 94 1007.8
20260508233058 67 221 1.0 3.0 0.00 0.03 0.03 94 1008.0
20260508231558 67 219 0.0 1.0 0.00 0.03 0.03 94 1008.0
20260508231501 67 219 0.0 1.0 0.00 0.03 0.03 94 1008.0
20260508230058 68 219 0.0 2.0 0.00 0.03 0.03 94 1007.9
20260508230002 68 219 0.0 2.0 0.00 0.03 0.03 93 1007.9
20260508224606 67 219 0.0 0.0 0.00 0.03 0.03 93 1007.9
20260508223058 67 219 0.0 3.0 0.00 0.03 0.03 93 1007.8
20260508221559 68 217 0.0 2.0 0.00 0.03 0.03 93 1007.7
20260508220057 68 217 1.0 3.0 0.00 0.03 0.03 93 1007.7
20260508220001 68 217 1.0 3.0 0.00 0.03 0.03 93 1007.7
20260508214558 68 226 0.0 4.0 0.00 0.03 0.03 93 1007.6
20260508213102 68 271 0.0 4.0 0.00 0.03 0.03 93 1007.2
20260508211558 69 252 0.0 3.0 0.00 0.03 0.03 93 1007.2
20260508210058 69 252 0.0 3.0 0.00 0.03 0.03 93 1007.1
20260508210000 69 252 0.0 3.0 0.00 0.03 0.03 93 1007.1
20260508204558 70 251 0.0 0.0 0.00 0.03 0.03 93 1007.1
20260508203058 70 251 0.0 1.0 0.00 0.03 0.03 93 1007.1
20260508201610 70 245 0.0 1.0 0.00 0.03 0.03 93 1007.0
20260508200107 70 254 2.0 4.0 0.00 0.03 0.03 93 1006.6
20260508194600 71 260 0.0 3.0 0.00 0.03 0.03 93 1006.1
20260508193109 71 260 1.0 2.0 0.02 0.03 0.03 93 1006.5
20260508191558 71 258 0.0 0.0 0.03 0.03 0.03 92 1006.3
20260508190101 71 258 0.0 1.0 0.03 0.03 0.03 92 1006.8
20260508184609 71 258 0.0 5.0 0.02 0.02 0.02 91 1007.1
20260508183107 72 103 1.0 3.0 0.01 0.01 0.01 91 1006.8
20260508181600 72 342 0.0 3.0 0.00 0.00 0.00 90 1007.2
20260508180100 73 63 0.0 3.0 0.00 0.00 0.00 90 1006.8
20260508174606 73 55 2.0 3.0 0.00 0.00 0.00 89 1007.2
20260508173057 73 300 1.0 2.0 0.00 0.00 0.00 89 1007.3
20260508171601 73 295 0.0 2.0 0.00 0.00 0.00 89 1006.8
20260508170059 73 295 1.0 2.0 0.00 0.00 0.00 89 1006.4
20260508164604 73 295 1.0 2.0 0.00 0.00 0.00 89 1006.2
20260508163117 73 293 1.0 3.0 0.00 0.00 0.00 89 1006.3
20260508161558 73 292 0.0 2.0 0.00 0.00 0.00 88 1006.3
20260508160057 74 1 0.0 2.0 0.00 0.00 0.00 89 1006.5
20260508154600 74 1 1.0 3.0 0.00 0.00 0.00 88 1006.7
20260508153059 74 274 0.0 4.0 0.00 0.00 0.00 88 1007.0
20260508151609 74 94 0.0 2.0 0.00 0.00 0.00 89 1006.6
20260508150100 73 95 1.0 3.0 0.00 0.00 0.00 89 1006.5
20260508150001 73 94 0.0 2.0 0.00 0.00 0.00 89 1006.5
20260508144604 73 266 0.0 2.0 0.00 0.00 0.00 90 1006.8
20260508143058 72 266 0.0 3.0 0.00 0.00 0.00 91 1006.8
20260508141604 72 264 1.0 2.0 0.00 0.00 0.00 91 1007.1
20260508140058 71 263 0.0 3.0 0.00 0.00 0.00 92 1007.4
20260508140001 71 263 0.0 3.0 0.00 0.00 0.00 92 1007.4
20260508134602 71 259 1.0 4.0 0.00 0.00 0.00 93 1007.3
20260508133105 71 311 1.0 3.0 0.00 0.00 0.00 93 1007.3
20260508131559 71 208 0.0 2.0 0.00 0.00 0.00 94 1007.4
20260508130109 71 207 0.0 2.0 0.00 0.00 0.00 94 1007.8
20260508130001 71 207 0.0 2.0 0.00 0.00 0.00 94 1007.8
20260508124557 71 207 0.0 3.0 0.00 0.00 0.00 94 1007.8
20260508123058 71 254 1.0 6.0 0.00 0.00 0.00 94 1008.3
20260508121558 71 283 3.0 4.0 0.00 0.00 0.00 94 1007.8
20260508120058 70 319 0.0 4.0 0.00 0.00 0.00 94 1007.5
20260508120002 70 319 1.0 4.0 0.00 0.00 0.00 94 1007.5
20260508114557 70 289 0.0 3.0 0.00 0.00 0.00 94 1007.8
20260508113100 70 284 0.0 3.0 0.00 0.00 0.00 94 1007.8
20260508111557 70 121 1.0 4.0 0.00 0.00 0.00 94 1007.2
20260508110125 70 110 0.0 2.0 0.00 0.00 0.00 94 1007.3
20260508110001 70 110 0.0 2.0 0.00 0.00 0.00 94 1007.3
20260508104603 70 110 0.0 2.0 0.00 0.00 0.00 94 1007.3
20260508103059 70 110 1.0 4.0 0.00 0.00 0.00 94 1007.3
20260508101602 69 97 1.0 3.0 0.00 0.00 0.00 94 1007.4
20260508100058 69 25 2.0 4.0 0.00 0.00 0.00 95 1007.1
20260508094559 69 53 2.0 3.0 0.00 0.00 0.00 95 1007.6
20260508093105 69 105 1.0 2.0 0.00 0.00 0.00 95 1007.0
20260508091558 69 103 0.0 1.0 0.00 0.00 0.00 94 1006.3
20260508090110 69 103 1.0 2.0 0.00 0.00 0.00 94 1006.3
20260508084558 69 103 0.0 2.0 0.00 0.00 0.00 95 1005.9